DW7779 Weather Reports


Display with metric or nautical units.
time (UTC)temp
F
wind
direction
speed
MPH
gust
MPH
rain 1hr
in
rain 24hr
in
rain mn
in
humidity
%
barometer
mb
20260506093014 50 4.0 10.0 0.00 0.04 0.04 89 1015.9
20260506091513 51 1.0 10.0 0.00 0.04 0.04 90 1015.5
20260506090009 52 2.0 8.0 0.00 0.04 0.04 88 1015.2
20260506084510 53 2.0 7.0 0.00 0.04 0.04 87 1015.2
20260506083007 53 5.0 13.0 0.00 0.04 0.04 87 1014.8
20260506081507 54 1.0 6.0 0.00 0.04 0.04 85 1014.4
20260506073009 57 4.0 13.0 0.00 0.04 0.04 86 1013.0
20260506071505 58 5.0 11.0 0.00 0.04 0.04 87 1012.9
20260506061502 58 5.0 11.0 0.04 0.04 0.04 87 1013.5
20260506050103 64 6.0 14.0 0.00 0.00 0.00 66 1013.4
20260506044657 65 9.0 17.0 0.00 0.00 0.00 64 1013.7
20260506043049 65 6.0 12.0 0.00 0.00 0.00 63 1013.9
20260506041558 65 4.0 9.0 0.00 0.00 0.00 63 1014.0
20260506040044 64 5.0 12.0 0.00 0.00 0.00 63 1014.4
20260506034618 65 6.0 10.0 0.00 0.00 0.00 62 1014.6
20260506033039 65 4.0 11.0 0.00 0.00 0.00 62 1014.8
20260506031540 65 5.0 12.0 0.00 0.00 0.00 62 1014.9
20260506030032 64 6.0 13.0 0.00 0.00 0.00 64 1015.5
20260506024530 64 4.0 10.0 0.00 0.00 0.00 63 1015.8
20260506023027 64 7.0 11.0 0.00 0.00 0.00 63 1016.0
20260506021524 64 3.0 12.0 0.00 0.00 0.00 64 1016.4
20260506020022 65 5.0 11.0 0.00 0.00 0.00 62 1016.8
20260506014526 64 6.0 11.0 0.00 0.00 0.00 63 1017.1
20260506013015 63 5.0 12.0 0.00 0.00 0.00 64 1017.3
20260506011516 63 3.0 8.0 0.00 0.00 0.00 65 1017.5
20260506010013 62 6.0 10.0 0.00 0.00 0.00 65 1017.7
20260506004515 62 4.0 10.0 0.00 0.00 0.00 67 1017.7
20260506003003 61 5.0 13.0 0.00 0.00 0.00 68 1018.0
20260506001501 60 5.0 14.0 0.00 0.00 0.00 69 1018.3
20260506000058 59 5.0 10.0 0.00 0.00 0.00 70 1018.5
20260505234622 59 5.0 10.0 0.00 0.00 0.00 70 1018.7
20260505233051 58 4.0 8.0 0.00 0.00 0.00 72 1018.9
20260505231547 58 2.0 7.0 0.00 0.00 0.00 74 1019.0
20260505230045 56 2.0 6.0 0.00 0.00 0.00 76 1019.2
20260505224541 55 0.0 2.0 0.00 0.00 0.00 80 1019.3
20260505223036 54 0.0 2.0 0.00 0.00 0.00 81 1019.3
20260505221534 53 0.0 2.0 0.00 0.00 0.00 81 1019.3
20260505220043 53 1.0 4.0 0.00 0.00 0.00 82 1019.3
20260505214536 52 0.0 3.0 0.00 0.00 0.00 83 1019.3
20260505213026 52 0.0 2.0 0.00 0.00 0.00 83 1019.3
20260505211525 52 0.0 1.0 0.00 0.00 0.00 83 1019.3
20260505210023 52 0.0 2.0 0.00 0.00 0.00 84 1019.4
20260505204523 51 0.0 2.0 0.00 0.00 0.00 84 1019.5
20260505203019 51 0.0 2.0 0.00 0.00 0.00 85 1019.6
20260505201522 51 0.0 3.0 0.00 0.00 0.00 85 1019.6
20260505200012 51 0.0 2.0 0.00 0.00 0.00 85 1019.6
20260505194524 51 0.0 1.0 0.00 0.00 0.00 86 1019.6
20260505193024 50 0.0 2.0 0.00 0.00 0.00 87 1019.4
20260505191506 50 0.0 1.0 0.00 0.00 0.00 88 1019.4
20260505190004 50 0.0 2.0 0.00 0.00 0.00 89 1019.5
20260505184506 50 0.0 0.0 0.00 0.00 0.00 90 1019.5
20260505183002 50 0.0 0.0 0.00 0.00 0.00 90 1019.5
20260505181502 50 0.0 0.0 0.00 0.00 0.00 89 1019.6
20260505180003 50 0.0 1.0 0.00 0.00 0.00 89 1019.6
20260505174613 50 0.0 3.0 0.00 0.00 0.00 90 1019.7
20260505173057 50 0.0 2.0 0.00 0.00 0.00 91 1019.8
20260505171556 49 1.0 3.0 0.00 0.00 0.00 91 1019.9
20260505170134 49 1.0 2.0 0.00 0.00 0.00 92 1020.0
20260505164553 48 0.0 2.0 0.00 0.00 0.00 93 1020.1
20260505163052 47 0.0 0.0 0.00 0.00 0.00 93 1020.2
20260505161557 47 0.0 0.0 0.00 0.00 0.00 92 1020.3
20260505153053 49 0.0 0.0 0.00 0.00 0.00 90 1020.6
20260505151545 50 0.0 0.0 0.00 0.00 0.00 89 1020.7
20260505124514 52 0.0 0.0 0.00 0.00 0.00 86 1021.6
20260505123009 54 0.0 0.0 0.00 0.00 0.00 85 1021.6
20260505121510 54 0.0 0.0 0.00 0.00 0.00 85 1021.6
20260505120008 54 0.0 1.0 0.00 0.00 0.00 84 1021.7
20260505114507 55 0.0 0.0 0.00 0.00 0.00 84 1021.7
20260505113006 55 0.0 1.0 0.00 0.00 0.00 83 1021.7
20260505111507 55 0.0 1.0 0.00 0.00 0.00 83 1021.8
20260505101504 56 0.0 0.0 0.00 0.00 0.00 81 1021.7
20260505100003 56 0.0 0.0 0.00 0.00 0.00 80 1021.7
20260505094502 56 0.0 0.0 0.00 0.00 0.00 80 1021.7